Aérodrome :
LOGIN :

S'inscrire | Disclaimer

   EN    FR    IT 

 










Légende :    VFR   VFR Marginal   IFR   IFR Intensif   IFR Très Intensif
Visi : 
Plafond : 
>= 8 km
>= 3000ft
5 à 8 km
1000 à 3000 ft
1500m à 5 km
500 à 1000 ft
800 à 1500m
200 à 500 ft
< 800m
< 200 ft
Symboles :   Orages  Brouillard  Fortes neiges  Fortes précipitations  Vent > 20 kt
SIGMETs :   Divers  Orages  Givrage  Turbulence  Onde Orograph.  Cendres Volcan.







- Altitude de l'aérodrome : 374 ft
- Code IATA : LIS


LPPT - Lisboa Portela

DERNIER METAR :
  • 260230Z 33008KT 290V350 CAVOK 18/13 Q1018

METARs EXPIRÉS :
  • 260200Z 33006KT 290V010 CAVOK 18/13 Q1018
  • 260130Z 34006KT 310V010 CAVOK 18/13 Q1018
  • 260100Z 32007KT 290V010 CAVOK 19/12 Q1018
  • 260030Z 33009KT CAVOK 19/12 Q1019

TAF TAF LPPT
Valide du 26 à 00h jusqu'au 27 à 06h UTC


252300Z 2600/2706 34012KT CAVOK
BECMG 2606/2609 03012KT
BECMG 2614/2617 34015KT
PROB30
TEMPO 2617/2624 34020G30KT
Pas de NOTAMs connus pour ce terrain.



MET'MAP, la Météo Aéronautique d'un coup d'oeil ! - Copyright ORBIFLY Décembre 2007 - Disclaimer

ORBIFLY MET'MAP TEAM :

Programmation & Développement : Alexandra Zaïnal
Conception & Développement : Baudouin d'Aumeries
Co-Programmation & Développement : Marc-Olivier Méhu
Soutien technique & logistique : Manuel Goepfert

Contact : metmap@orbifly.com




SOURCES & CREDITS :

   NOAA